Location: Lecco
(45.8566°N, 9.3977°E)
Time: 10:29:17
(UTC+01:00)

ISS - Visible Passes

Search period start: 19 January 2026 00:00
Search period end: 29 January 2026 00:00
Orbit: 413 x 424 km, 51.6° (Epoch: 18 January)

Date Brightness Start Highest point End Pass type
(mag) Time Alt. Az. Time Alt. Az. Time Alt. Az.
19 Jan -2.5 18:40:19 10° WNW 18:43:21 31° N 18:44:16 26° NNE visible
20 Jan -2.8 17:52:15 10° W 17:55:23 36° NNW 17:58:23 11° NE visible
20 Jan -1.6 19:29:41 10° WNW 19:31:19 22° NW 19:31:19 22° NW visible
21 Jan -2.5 18:41:44 10° WNW 18:44:43 29° N 18:45:26 26° NNE visible
22 Jan -2.5 17:53:41 10° WNW 17:56:40 29° N 17:59:32 11° ENE visible
22 Jan -1.8 19:30:45 10° NW 19:32:28 25° NW 19:32:28 25° NW visible
23 Jan -2.9 18:42:50 10° NW 18:45:56 34° NNE 18:46:36 31° NE visible
24 Jan -2.7 17:54:51 10° WNW 17:57:52 30° N 18:00:46 11° ENE visible
24 Jan -2.3 19:31:38 10° WNW 19:33:42 35° NW 19:33:42 35° NW visible
25 Jan -3.6 18:43:41 10° WNW 18:46:59 53° NNE 18:47:56 37° ENE visible
25 Jan -0.3 20:20:40 10° WNW 20:20:53 11° W 20:20:53 11° W visible
26 Jan -3.2 17:55:43 10° NW 17:58:55 41° NNE 18:02:06 10° E visible
26 Jan -2.6 19:32:31 10° WNW 19:35:12 42° WSW 19:35:12 42° WSW visible
27 Jan -3.7 18:44:26 10° WNW 18:47:46 75° SSW 18:49:39 24° SE visible
28 Jan -3.8 17:56:23 10° WNW 17:59:44 73° NNE 18:03:04 10° ESE visible
28 Jan -1.4 19:33:43 10° W 19:36:12 19° SW 19:37:15 17° SSW visible
